| time (UTC) | temp C | wind direction | speed KPH | gust KPH | rain 1hr cm | rain 24hr cm | rain mn cm | humidity % | barometer mb |
| 20260904232518 | 29 | 14 | 0.0 | 3.2 | 0.00 | 0.00 | 0.00 | 75 | 1014.5 |
| 20260904231518 | 30 | 7 | 3.2 | 6.4 | 0.00 | 0.00 | 0.00 | 72 | 1014.6 |
| 20260904230518 | 30 | 34 | 4.8 | 6.4 | 0.00 | 0.00 | 0.00 | 70 | 1014.7 |
| 20260904225519 | 30 | 26 | 4.8 | 8.0 | 0.00 | 0.00 | 0.00 | 70 | 1014.7 |
| 20260904224519 | 31 | 25 | 6.4 | 9.7 | 0.00 | 0.00 | 0.00 | 68 | 1014.8 |
| 20260904223518 | 32 | 71 | 8.0 | 11.3 | 0.00 | 0.00 | 0.00 | 66 | 1014.8 |
| 20260904222548 | 32 | 43 | 6.4 | 6.4 | 0.00 | 0.00 | 0.00 | 65 | 1014.6 |
| 20260904221629 | 32 | 62 | 8.0 | 9.7 | 0.00 | 0.00 | 0.00 | 65 | 1014.7 |
| 20260904220529 | 35 | 77 | 8.0 | 11.3 | 0.00 | 0.00 | 0.00 | 57 | 1014.9 |
| 20260904215519 | 36 | 225 | 3.2 | 4.8 | 0.00 | 0.00 | 0.00 | 55 | 1015.0 |
| 20260904214519 | 36 | 214 | 6.4 | 8.0 | 0.00 | 0.00 | 0.00 | 52 | 1014.9 |
| 20260904213519 | 37 | 254 | 4.8 | 6.4 | 0.00 | 0.00 | 0.00 | 50 | 1015.1 |
| 20260904212519 | 36 | 282 | 3.2 | 4.8 | 0.00 | 0.00 | 0.00 | 51 | 1015.1 |
| 20260904211519 | 36 | 329 | 3.2 | 8.0 | 0.00 | 0.00 | 0.00 | 50 | 1015.2 |
| 20260904210519 | 36 | 242 | 3.2 | 8.0 | 0.00 | 0.00 | 0.00 | 52 | 1015.4 |
| 20260904205519 | 36 | 258 | 3.2 | 6.4 | 0.00 | 0.00 | 0.00 | 51 | 1015.4 |
| 20260904204519 | 36 | 232 | 4.8 | 11.3 | 0.00 | 0.00 | 0.00 | 52 | 1015.4 |
| 20260904203519 | 36 | 250 | 6.4 | 11.3 | 0.00 | 0.00 | 0.00 | 51 | 1015.3 |
| 20260904202519 | 36 | 224 | 4.8 | 9.7 | 0.00 | 0.00 | 0.00 | 53 | 1015.5 |
| 20260904201519 | 36 | 230 | 6.4 | 11.3 | 0.00 | 0.00 | 0.00 | 51 | 1015.7 |
| 20260904200519 | 36 | 222 | 6.4 | 11.3 | 0.00 | 0.00 | 0.00 | 52 | 1015.7 |
| 20260904195600 | 36 | 232 | 8.0 | 12.9 | 0.00 | 0.00 | 0.00 | 51 | 1015.7 |
| 20260904194539 | 36 | 237 | 8.0 | 16.1 | 0.00 | 0.00 | 0.00 | 51 | 1015.7 |
| 20260904193519 | 36 | 267 | 4.8 | 17.7 | 0.00 | 0.00 | 0.00 | 51 | 1015.9 |
| 20260904192519 | 36 | 227 | 8.0 | 11.3 | 0.00 | 0.00 | 0.00 | 52 | 1016.1 |
| 20260904191519 | 36 | 325 | 4.8 | 6.4 | 0.00 | 0.00 | 0.00 | 53 | 1016.2 |
| 20260904190519 | 36 | 225 | 8.0 | 12.9 | 0.00 | 0.00 | 0.00 | 53 | 1016.2 |
| 20260904185559 | 36 | 226 | 6.4 | 11.3 | 0.00 | 0.00 | 0.00 | 53 | 1016.5 |
| 20260904184519 | 36 | 220 | 8.0 | 14.5 | 0.00 | 0.00 | 0.00 | 54 | 1016.6 |
| 20260904183519 | 36 | 253 | 6.4 | 14.5 | 0.00 | 0.00 | 0.00 | 53 | 1016.8 |
| 20260904182519 | 36 | 214 | 6.4 | 11.3 | 0.00 | 0.00 | 0.00 | 57 | 1016.9 |
| 20260904181519 | 36 | 227 | 4.8 | 11.3 | 0.00 | 0.00 | 0.00 | 54 | 1017.0 |
| 20260904180519 | 35 | 218 | 4.8 | 14.5 | 0.00 | 0.00 | 0.00 | 55 | 1017.2 |
| 20260904175518 | 35 | 231 | 8.0 | 12.9 | 0.00 | 0.00 | 0.00 | 54 | 1017.3 |
| 20260904174519 | 36 | 235 | 8.0 | 12.9 | 0.00 | 0.00 | 0.00 | 55 | 1017.4 |
| 20260904173519 | 35 | 261 | 4.8 | 8.0 | 0.00 | 0.00 | 0.00 | 57 | 1017.5 |
| 20260904172519 | 35 | 249 | 8.0 | 12.9 | 0.00 | 0.00 | 0.00 | 57 | 1017.6 |
| 20260904171519 | 35 | 214 | 8.0 | 12.9 | 0.00 | 0.00 | 0.00 | 58 | 1017.7 |
| 20260904170519 | 35 | 228 | 8.0 | 11.3 | 0.00 | 0.00 | 0.00 | 56 | 1017.8 |
| 20260904165519 | 35 | 241 | 3.2 | 6.4 | 0.00 | 0.00 | 0.00 | 59 | 1017.8 |
| 20260904164530 | 35 | 234 | 4.8 | 9.7 | 0.00 | 0.00 | 0.00 | 61 | 1017.8 |
| 20260904163530 | 34 | 233 | 8.0 | 12.9 | 0.00 | 0.00 | 0.00 | 59 | 1017.9 |
| 20260904162519 | 35 | 220 | 8.0 | 11.3 | 0.00 | 0.00 | 0.00 | 59 | 1017.9 |
| 20260904161519 | 34 | 243 | 4.8 | 8.0 | 0.00 | 0.00 | 0.00 | 62 | 1017.9 |
| 20260904160539 | 35 | 247 | 6.4 | 11.3 | 0.00 | 0.00 | 0.00 | 61 | 1017.9 |
| 20260904155519 | 35 | 232 | 4.8 | 6.4 | 0.00 | 0.00 | 0.00 | 57 | 1017.9 |
| 20260904154519 | 35 | 288 | 4.8 | 8.0 | 0.00 | 0.00 | 0.00 | 59 | 1017.8 |
| 20260904153559 | 35 | 301 | 3.2 | 6.4 | 0.00 | 0.00 | 0.00 | 58 | 1017.8 |
| 20260904152529 | 34 | 328 | 1.6 | 8.0 | 0.00 | 0.00 | 0.00 | 60 | 1017.8 |
| 20260904151540 | 34 | 355 | 3.2 | 6.4 | 0.00 | 0.00 | 0.00 | 61 | 1017.9 |
| 20260904150519 | 33 | 251 | 3.2 | 9.7 | 0.00 | 0.00 | 0.00 | 62 | 1017.9 |
| 20260904145519 | 33 | 242 | 3.2 | 9.7 | 0.00 | 0.00 | 0.00 | 64 | 1017.8 |
| 20260904144519 | 32 | 239 | 3.2 | 6.4 | 0.00 | 0.00 | 0.00 | 71 | 1017.8 |
| 20260904143520 | 31 | 211 | 6.4 | 8.0 | 0.00 | 0.00 | 0.00 | 72 | 1017.8 |
| 20260904142520 | 30 | 214 | 6.4 | 8.0 | 0.00 | 0.00 | 0.00 | 74 | 1017.7 |
| 20260904141519 | 30 | 222 | 6.4 | 9.7 | 0.00 | 0.00 | 0.00 | 73 | 1017.7 |
| 20260904140520 | 30 | 213 | 6.4 | 9.7 | 0.00 | 0.00 | 0.00 | 73 | 1017.7 |
| 20260904135519 | 30 | 214 | 4.8 | 6.4 | 0.00 | 0.00 | 0.00 | 72 | 1017.7 |
| 20260904134519 | 30 | 238 | 3.2 | 4.8 | 0.00 | 0.00 | 0.00 | 72 | 1017.8 |
| 20260904133540 | 30 | 203 | 4.8 | 4.8 | 0.00 | 0.00 | 0.00 | 70 | 1017.8 |
| 20260904132519 | 30 | 0.0 | 0.0 | 0.00 | 0.00 | 0.00 | 74 | 1017.8 | |
| 20260904131519 | 29 | 152 | 1.6 | 3.2 | 0.00 | 0.00 | 0.00 | 77 | 1017.7 |
| 20260904130520 | 28 | 0.0 | 0.0 | 0.00 | 0.00 | 0.00 | 80 | 1017.8 | |
| 20260904125539 | 27 | 0.0 | 0.0 | 0.00 | 0.00 | 0.00 | 87 | 1017.8 | |
| 20260904124520 | 25 | 0.0 | 0.0 | 0.00 | 0.00 | 0.00 | 93 | 1017.8 | |
| 20260904123519 | 24 | 0.0 | 0.0 | 0.00 | 0.00 | 0.00 | 98 | 1017.6 | |
| 20260904122519 | 23 | 0.0 | 0.0 | 0.00 | 0.00 | 0.00 | 99 | 1017.5 | |
| 20260904121520 | 22 | 0.0 | 0.0 | 0.00 | 0.00 | 0.00 | 99 | 1017.4 | |
| 20260904120520 | 22 | 0.0 | 0.0 | 0.00 | 0.00 | 0.00 | 99 | 1017.1 | |
| 20260904115519 | 22 | 0.0 | 0.0 | 0.00 | 0.00 | 0.00 | 99 | 1017.0 | |
| 20260904114520 | 21 | 0.0 | 0.0 | 0.00 | 0.00 | 0.00 | 100 | 1016.7 | |
| 20260904113519 | 21 | 0.0 | 0.0 | 0.00 | 0.00 | 0.00 | 100 | 1016.7 | |
| 20260904112520 | 21 | 0.0 | 0.0 | 0.00 | 0.00 | 0.00 | 99 | 1016.6 | |
| 20260904111520 | 21 | 0.0 | 0.0 | 0.00 | 0.00 | 0.00 | 99 | 1016.5 | |
| 20260904110520 | 21 | 0.0 | 0.0 | 0.00 | 0.00 | 0.00 | 99 | 1016.5 | |
| 20260904105520 | 21 | 0.0 | 0.0 | 0.00 | 0.00 | 0.00 | 99 | 1016.5 | |
| 20260904104519 | 21 | 0.0 | 0.0 | 0.00 | 0.00 | 0.00 | 99 | 1016.5 | |
| 20260904103520 | 21 | 0.0 | 0.0 | 0.00 | 0.00 | 0.00 | 99 | 1016.5 | |
| 20260904102520 | 21 | 0.0 | 0.0 | 0.00 | 0.00 | 0.00 | 99 | 1016.6 | |
| 20260904101540 | 21 | 0.0 | 0.0 | 0.00 | 0.00 | 0.00 | 99 | 1016.5 | |
| 20260904100520 | 21 | 0.0 | 0.0 | 0.00 | 0.00 | 0.00 | 99 | 1016.5 | |
| 20260904095520 | 21 | 0.0 | 0.0 | 0.00 | 0.00 | 0.00 | 99 | 1016.5 | |
| 20260904094520 | 21 | 0.0 | 0.0 | 0.00 | 0.00 | 0.00 | 99 | 1016.4 | |
| 20260904093521 | 21 | 0.0 | 0.0 | 0.00 | 0.00 | 0.00 | 99 | 1016.4 | |
| 20260904092541 | 21 | 0.0 | 0.0 | 0.00 | 0.00 | 0.00 | 99 | 1016.3 | |
| 20260904091540 | 22 | 0.0 | 0.0 | 0.00 | 0.00 | 0.00 | 99 | 1016.3 | |
| 20260904090520 | 22 | 0.0 | 0.0 | 0.00 | 0.00 | 0.00 | 99 | 1016.4 | |
| 20260904085521 | 22 | 0.0 | 0.0 | 0.00 | 0.00 | 0.00 | 99 | 1016.4 | |
| 20260904084540 | 22 | 0.0 | 0.0 | 0.00 | 0.00 | 0.00 | 99 | 1016.4 | |
| 20260904083520 | 22 | 0.0 | 0.0 | 0.00 | 0.00 | 0.00 | 99 | 1016.4 | |
| 20260904082520 | 22 | 0.0 | 0.0 | 0.00 | 0.00 | 0.00 | 99 | 1016.4 | |
| 20260904081520 | 22 | 0.0 | 0.0 | 0.00 | 0.00 | 0.00 | 99 | 1016.4 | |
| 20260904080520 | 22 | 0.0 | 0.0 | 0.00 | 0.00 | 0.00 | 99 | 1016.3 | |
| 20260904075520 | 22 | 0.0 | 0.0 | 0.00 | 0.00 | 0.00 | 99 | 1016.4 | |
| 20260904074520 | 22 | 0.0 | 0.0 | 0.00 | 0.00 | 0.00 | 99 | 1016.4 | |
| 20260904073540 | 22 | 0.0 | 0.0 | 0.00 | 0.00 | 0.00 | 99 | 1016.5 | |
| 20260904072520 | 22 | 0.0 | 0.0 | 0.00 | 0.00 | 0.00 | 99 | 1016.5 | |
| 20260904071520 | 22 | 0.0 | 0.0 | 0.00 | 0.00 | 0.00 | 99 | 1016.6 | |
| 20260904070520 | 22 | 0.0 | 0.0 | 0.00 | 0.00 | 0.00 | 99 | 1016.7 | |
| 20260904065541 | 22 | 0.0 | 0.0 | 0.00 | 0.00 | 0.00 | 99 | 1016.7 | |
| 20260904064520 | 22 | 0.0 | 0.0 | 0.00 | 0.00 | 0.00 | 98 | 1016.7 | |
| 20260904063520 | 22 | 0.0 | 0.0 | 0.00 | 0.00 | 0.00 | 98 | 1016.7 | |
| 20260904062520 | 22 | 0.0 | 0.0 | 0.00 | 0.00 | 0.00 | 98 | 1016.7 | |
| 20260904061520 | 23 | 0.0 | 0.0 | 0.00 | 0.00 | 0.00 | 98 | 1016.8 | |
| 20260904060520 | 23 | 0.0 | 0.0 | 0.00 | 0.00 | 0.00 | 98 | 1016.8 | |
| 20260904055520 | 23 | 0.0 | 0.0 | 0.00 | 0.00 | 0.00 | 98 | 1016.9 | |
| 20260904054521 | 23 | 0.0 | 0.0 | 0.00 | 0.00 | 0.00 | 98 | 1016.9 | |
| 20260904053520 | 23 | 0.0 | 0.0 | 0.00 | 0.00 | 0.00 | 98 | 1016.9 | |
| 20260904052521 | 23 | 0.0 | 0.0 | 0.00 | 0.00 | 0.00 | 98 | 1016.9 | |
| 20260904051520 | 23 | 0.0 | 0.0 | 0.00 | 0.00 | 0.00 | 98 | 1016.9 | |
| 20260904050521 | 23 | 0.0 | 0.0 | 0.00 | 0.00 | 0.00 | 97 | 1016.9 | |
| 20260904045521 | 23 | 0.0 | 0.0 | 0.00 | 0.00 | 0.00 | 97 | 1016.9 | |
| 20260904044521 | 23 | 0.0 | 0.0 | 0.00 | 0.00 | 0.00 | 97 | 1016.9 | |
| 20260904043521 | 23 | 0.0 | 0.0 | 0.00 | 0.00 | 0.00 | 97 | 1016.9 | |
| 20260904042541 | 23 | 0.0 | 0.0 | 0.00 | 0.00 | 0.00 | 97 | 1016.8 | |
| 20260904041520 | 23 | 0.0 | 0.0 | 0.00 | 0.00 | 0.00 | 97 | 1016.8 | |
| 20260904040521 | 23 | 0.0 | 0.0 | 0.00 | 0.00 | 0.00 | 97 | 1016.8 | |
| 20260904035521 | 23 | 0.0 | 0.0 | 0.00 | 0.00 | 0.00 | 97 | 1016.7 | |
| 20260904034521 | 24 | 0.0 | 0.0 | 0.00 | 0.00 | 0.00 | 97 | 1016.8 | |
| 20260904033521 | 24 | 352 | 0.0 | 3.2 | 0.00 | 0.00 | 0.00 | 97 | 1016.9 |
| 20260904032520 | 24 | 0.0 | 0.0 | 0.00 | 0.00 | 0.00 | 96 | 1016.8 | |
| 20260904031521 | 24 | 0.0 | 0.0 | 0.00 | 0.00 | 0.00 | 96 | 1016.8 | |
| 20260904030521 | 24 | 0.0 | 0.0 | 0.00 | 0.00 | 0.00 | 96 | 1016.7 | |
| 20260904025520 | 24 | 0.0 | 0.0 | 0.00 | 0.00 | 0.00 | 96 | 1016.8 | |
| 20260904024521 | 25 | 0.0 | 0.0 | 0.00 | 0.00 | 0.00 | 96 | 1016.9 | |
| 20260904023521 | 25 | 0.0 | 0.0 | 0.00 | 0.00 | 0.00 | 95 | 1016.8 | |
| 20260904022521 | 25 | 0.0 | 0.0 | 0.00 | 0.00 | 0.00 | 95 | 1016.9 | |
| 20260904021521 | 25 | 0.0 | 0.0 | 0.00 | 0.00 | 0.00 | 95 | 1017.0 | |
| 20260904020521 | 25 | 0.0 | 0.0 | 0.00 | 0.00 | 0.00 | 94 | 1016.9 | |
| 20260904015521 | 25 | 0.0 | 0.0 | 0.00 | 0.00 | 0.00 | 93 | 1016.9 | |
| 20260904014541 | 25 | 0.0 | 0.0 | 0.00 | 0.00 | 0.00 | 93 | 1017.0 | |
| 20260904013541 | 25 | 0.0 | 0.0 | 0.00 | 0.00 | 0.00 | 92 | 1017.0 | |
| 20260904012521 | 26 | 0.0 | 0.0 | 0.00 | 0.00 | 0.00 | 91 | 1017.0 | |
| 20260904011542 | 26 | 0.0 | 0.0 | 0.00 | 0.00 | 0.00 | 89 | 1016.8 | |
| 20260904010521 | 26 | 0.0 | 0.0 | 0.00 | 0.00 | 0.00 | 88 | 1016.7 | |
| 20260904005521 | 26 | 0.0 | 0.0 | 0.00 | 0.00 | 0.00 | 87 | 1016.6 | |
| 20260904004521 | 27 | 0.0 | 0.0 | 0.00 | 0.00 | 0.00 | 86 | 1016.5 | |
| 20260904003521 | 27 | 0.0 | 0.0 | 0.00 | 0.00 | 0.00 | 86 | 1016.4 | |
| 20260904002521 | 27 | 0.0 | 0.0 | 0.00 | 0.00 | 0.00 | 84 | 1016.3 | |
| 20260904001521 | 28 | 0.0 | 0.0 | 0.00 | 0.00 | 0.00 | 82 | 1016.2 | |
| 20260904000521 | 28 | 0.0 | 0.0 | 0.00 | 0.00 | 0.00 | 80 | 1016.0 | |
| 20260903235541 | 29 | 0.0 | 0.0 | 0.00 | 0.00 | 0.00 | 78 | 1016.0 | |
| 20260903234521 | 30 | 0.0 | 0.0 | 0.00 | 0.00 | 0.00 | 75 | 1015.9 | |
| 20260903233521 | 31 | 0.0 | 0.0 | 0.00 | 0.00 | 0.00 | 72 | 1016.0 |